Location: Newark
(35.8833°N, 14.5000°E)
Time: 18:52:03
(UTC+00:00)

BEESAT - Pass Details

Date: 18 November 2019
Orbit: 700 x 709 km, 98.6° (Epoch: 06 December)

Event Time Altitude Azimuth Distance (km) Brightness Sun altitude
Rises 04:35:30 0° 197° (SSW) 3,076 ? -13.3°
Reaches altitude 10° 04:38:09 10° 211° (SSW) 2,161 ? -12.8°
Maximum altitude 04:41:54 23° 264° (W) 1,463 ? -12.1°
Enters shadow 04:45:10 12° 313° (NW) 2,016 ? -11.5°
